30.06.2024;16:00;4
30.06.2024;15:00;3
30.06.2024;14:00;3
30.06.2024;13:00;4
30.06.2024;12:00;6
30.06.2024;11:00;8
30.06.2024;10:00;13
30.06.2024;09:00;13
30.06.2024;08:00;12
30.06.2024;07:00;11
30.06.2024;06:00;10
30.06.2024;05:00;11
30.06.2024;04:00;23
30.06.2024;03:00;24
30.06.2024;02:00;26
30.06.2024;01:00;27
29.06.2024;24:00;25
29.06.2024;23:00;25
29.06.2024;22:00;23
29.06.2024;21:00;22
29.06.2024;20:00;22
29.06.2024;19:00;21
29.06.2024;18:00;21
29.06.2024;17:00;21
29.06.2024;16:00;22
29.06.2024;15:00;23
29.06.2024;14:00;23
29.06.2024;13:00;23
29.06.2024;12:00;21
29.06.2024;11:00;20
29.06.2024;10:00;19
29.06.2024;09:00;19
29.06.2024;08:00;20
29.06.2024;07:00;20
29.06.2024;06:00;19
29.06.2024;05:00;18
29.06.2024;04:00;17
29.06.2024;03:00;14
29.06.2024;02:00;14
29.06.2024;01:00;13
28.06.2024;24:00;11
28.06.2024;23:00;12
28.06.2024;22:00;9
28.06.2024;21:00;6
28.06.2024;20:00;5
28.06.2024;19:00;8
28.06.2024;18:00;15
28.06.2024;17:00;20
28.06.2024;16:00;16
28.06.2024;15:00;17
28.06.2024;14:00;22
28.06.2024;13:00;19
28.06.2024;12:00;20
28.06.2024;11:00;20
28.06.2024;10:00;18
28.06.2024;09:00;21
28.06.2024;08:00;22
28.06.2024;07:00;23
28.06.2024;06:00;19
28.06.2024;05:00;19
28.06.2024;04:00;21
28.06.2024;03:00;20
28.06.2024;02:00;18
28.06.2024;01:00;18
27.06.2024;24:00;15
27.06.2024;23:00;12
27.06.2024;22:00;13
27.06.2024;21:00;14
27.06.2024;20:00;13
27.06.2024;19:00;10
27.06.2024;18:00;10
27.06.2024;17:00;18
27.06.2024;16:00;16
27.06.2024;15:00;18
27.06.2024;14:00;18
27.06.2024;13:00;21
27.06.2024;12:00;21
27.06.2024;11:00;20
27.06.2024;10:00;19
27.06.2024;09:00;23
27.06.2024;08:00;31
27.06.2024;07:00;27
27.06.2024;06:00;27
27.06.2024;05:00;28
27.06.2024;04:00;24
27.06.2024;03:00;20
27.06.2024;02:00;22
27.06.2024;01:00;22
26.06.2024;24:00;19
26.06.2024;23:00;20
26.06.2024;22:00;21
26.06.2024;21:00;22
26.06.2024;20:00;16
26.06.2024;19:00;15
26.06.2024;18:00;17
26.06.2024;17:00;17
26.06.2024;16:00;18
26.06.2024;15:00;20
26.06.2024;14:00;21
26.06.2024;13:00;23
26.06.2024;12:00;24
26.06.2024;11:00;26
26.06.2024;10:00;25
26.06.2024;09:00;26
26.06.2024;08:00;24
26.06.2024;07:00;21
26.06.2024;06:00;21
26.06.2024;05:00;19
26.06.2024;04:00;19
26.06.2024;03:00;18
26.06.2024;02:00;17
26.06.2024;01:00;17
25.06.2024;24:00;17
25.06.2024;23:00;17
25.06.2024;22:00;16
25.06.2024;21:00;16
25.06.2024;20:00;16
25.06.2024;19:00;16
25.06.2024;18:00;14
25.06.2024;17:00;12
25.06.2024;16:00;13
25.06.2024;15:00;14
25.06.2024;14:00;14
25.06.2024;13:00;13
25.06.2024;12:00;12
25.06.2024;11:00;13
25.06.2024;10:00;14
25.06.2024;09:00;18
25.06.2024;08:00;20
25.06.2024;07:00;15
25.06.2024;06:00;14
25.06.2024;05:00;13
25.06.2024;04:00;13
25.06.2024;03:00;13
25.06.2024;02:00;11
25.06.2024;01:00;13
